Tracking 23752 objects as of 24-Oct-2021
HD Live streaming from Space Station
objects crossing your sky now

FREGAT DEB

Track FREGAT DEB now!
10-day predictions


NORAD ID: 45614
Int'l Code: 2011-037H
Perigee: 718.3 km
Apogee: 3,171.9 km
Inclination: 51.2 °
Period: 125.8 minutes
Semi major axis: 8316 km
RCS: Unknown
Launch date: July 18, 2011
Source: Commonwealth of Independent States (former USSR) (CIS)
Launch site: TYURATAM MISSILE AND SPACE COMPLEX (TTMTR)

Note: This is SATELLITE DEBRIS
aabbcc
Your satellite tracking list
Your tracking list is empty




NASA's NSSDC Master Catalog

Two Line Element Set (TLE):
1 45614U 11037H   21297.05410339 -.00005140  00000-0 -78760-2 0  9990
2 45614  51.2039 156.3265 1475244 322.4500  28.1654 11.44784247 60681
Source of the keplerian elements: AFSPC